www.pogodaiklimat.ru

Погода и климат >> Архив погоды >> Норвегия >> Сетса


ПОГОДА в Сетсе

  • Прогноз погоды в Сетсе
  • Монитор погоды в Сетсе

АРХИВ ПОГОДЫ в Сетсе

Время (UTC), дата Ветер
(напр.,м/с)
 
Видим.   Явления Облачность Т
(С)
Тd
(С)
f
(%)
Тe
(С)
Тes
(С)
Комфортность P
(гПа)
Po
(гПа)
Тmin
(С)
Tmax
(С)
R
(мм)
R24
(мм)
S
(см)
19 15.08 н/о н/о +11.6 +10.4 92 1007.9 1007.0
20 15.08 н/о н/о +11.0 +9.9 93 1008.0 1007.1
21 15.08 н/о н/о +10.6 +9.7 94 1007.9 1007.0
22 15.08 н/о н/о +10.2 +9.3 94 1008.0 1007.1
23 15.08 н/о н/о +9.1 +8.3 95 1007.7 1006.8
00 16.08 н/о н/о +9.2 +8.4 95 1007.3 1006.4
01 16.08 н/о н/о +8.8 +8.1 95 1007.3 1006.4
02 16.08 н/о н/о +8.0 +7.3 95 1007.4 1006.5
03 16.08 н/о н/о +7.5 +6.9 96 1006.9 1006.0
04 16.08 н/о н/о +7.6 +7.0 96 1006.8 1005.9
05 16.08 н/о н/о +9.0 +8.4 96 1006.5 1005.6
06 16.08 н/о н/о +9.4 +8.6 95 1006.2 1005.3 +7.4 +12.1
07 16.08 н/о н/о +10.7 +9.1 90 1005.6 1004.7
08 16.08 н/о н/о +12.2 +9.0 81 1005.0 1004.1
09 16.08 н/о н/о +13.6 +9.3 75 1004.6 1003.7
10 16.08 н/о н/о +16.0 +9.0 63 1004.1 1003.2
11 16.08 н/о н/о +18.2 +9.0 55 1003.7 1002.8
12 16.08 н/о н/о +19.4 +6.5 43 1003.6 1002.7
13 16.08 н/о н/о +19.3 +5.7 41 1003.7 1002.8
14 16.08 н/о н/о +16.4 +6.3 51 1004.2 1003.3
15 16.08 н/о н/о +16.2 +7.2 55 1004.6 1003.7
16 16.08 н/о н/о +15.2 +9.3 68 1004.9 1004.0
17 16.08 н/о н/о +13.7 +10.3 80 1005.4 1004.5
18 16.08 н/о н/о +12.2 +9.9 86 1005.9 1005.0 +9.3 +20.1 2
19 16.08 н/о н/о +11.5 +10.1 91 1005.6 1004.7 0.1
20 16.08 н/о н/о +9.7 +8.6 93 1005.6 1004.7
21 16.08 н/о н/о +8.4 +7.5 94 1005.8 1004.9
22 16.08 н/о н/о +7.3 +6.4 94 1005.8 1004.9
23 16.08 н/о н/о +6.7 +5.8 94 1005.9 1005.0
00 17.08 н/о н/о +6.3 +5.6 95 1005.7 1004.8
01 17.08 н/о н/о +6.1 +5.4 95 1005.6 1004.7
02 17.08 н/о н/о +5.6 +5.0 96 1005.6 1004.7
03 17.08 н/о н/о +5.5 +4.9 96 1005.3 1004.4
04 17.08 н/о н/о +5.3 +4.6 95 1004.7 1003.8
05 17.08 н/о н/о +7.3 +6.9 97 1004.6 1003.7
06 17.08 н/о н/о +8.9 +8.3 96 1004.1 1003.2 +5.0 +12.2 0.1
07 17.08 н/о н/о +9.8 +9.0 95 1003.8 1002.9
08 17.08 н/о н/о +11.0 +10.2 95 1003.3 1002.4
09 17.08 н/о н/о +12.1 +10.0 87 1003.0 1002.1
10 17.08 н/о н/о +13.6 +10.2 80 1002.4 1001.5
11 17.08 н/о н/о +16.1 +11.5 74 1001.6 1000.7
12 17.08 н/о н/о +19.0 +11.8 63 1001.3 1000.4
13 17.08 н/о н/о +19.9 +11.7 59 1000.6 999.7
14 17.08 н/о н/о +19.8 +11.6 59 1000.2 999.3
15 17.08 н/о н/о +20.0 +11.2 57 999.5 998.6
16 17.08 н/о н/о +19.5 +11.0 58 999.0 998.1
17 17.08 н/о н/о +19.1 +11.2 60 998.8 997.9
18 17.08 н/о н/о +18.9 +10.7 59 998.3 997.4 +8.9 +20.4
19 17.08 н/о н/о +18.8 +10.1 57 998.3 997.4
20 17.08 н/о н/о +18.6 +8.6 52 998.1 997.2
21 17.08 н/о н/о +17.3 +8.7 57 998.3 997.4
22 17.08 н/о н/о +15.6 +10.6 72 998.6 997.7 0.1
23 17.08 н/о н/о +16.4 +9.6 64 998.8 997.9
00 18.08 н/о н/о +17.0 +8.2 56 998.5 997.6
01 18.08 н/о н/о +15.9 +9.8 67 998.1 997.2
02 18.08 н/о н/о +16.6 +9.3 62 998.1 997.2
03 18.08 н/о н/о +16.5 +9.7 64 997.9 997.0
04 18.08 н/о н/о +16.8 +9.7 63 997.9 997.0
05 18.08 н/о н/о +15.4 +10.6 73 998.2 997.3
06 18.08 н/о н/о +17.3 +12.2 72 998.2 997.3 +14.7 +19.4 0.1
07 18.08 н/о н/о +18.3 +10.9 62 998.3 997.4
08 18.08 н/о н/о +18.7 +11.8 64 998.1 997.2
09 18.08 н/о н/о +20.1 +11.3 57 998.1 997.2
10 18.08 н/о н/о +21.8 +12.4 55 998.1 997.2
11 18.08 н/о н/о +21.0 +12.7 59 998.2 997.3
12 18.08 н/о н/о +18.7 +14.6 77 998.7 997.8 0.6
13 18.08 н/о н/о +15.6 +12.2 80 999.1 998.2
14 18.08 н/о н/о +15.2 +12.5 84 1000.3 999.4
15 18.08 н/о н/о +14.6 +12.1 85 1000.9 1000.0
16 18.08 н/о н/о +14.0 +12.7 92 1001.6 1000.7 4
17 18.08 н/о н/о +13.8 +12.2 90 1002.0 1001.1 0.2
18 18.08 н/о н/о +13.4 +11.5 88 1002.1 1001.2 +13.4 +22.0 0.2
19 18.08 н/о н/о +13.0 +10.5 85 1002.0 1001.1
20 18.08 н/о н/о +12.5 +11.2 92 1002.1 1001.2
21 18.08 н/о н/о +12.0 +10.9 93 1001.9 1001.0
22 18.08 н/о н/о +11.2 +10.3 94 1001.8 1000.9
23 18.08 н/о н/о +10.9 +10.3 96 1001.5 1000.6
00 19.08 н/о н/о +9.6 +8.8 95 1001.0 1000.1
01 19.08 н/о н/о +9.3 +8.7 96 1000.8 999.9
02 19.08 н/о н/о +9.1 +8.3 95 1000.4 999.5
03 19.08 н/о н/о +9.6 +9.0 96 999.6 998.7
04 19.08 н/о н/о +10.0 +9.4 96 999.5 998.6
05 19.08 н/о н/о +11.3 +10.7 96 999.0 998.1
06 19.08 н/о н/о +12.2 +11.4 95 998.3 997.4 +8.8 +13.4
07 19.08 н/о н/о +12.6 +11.7 94 997.9 997.0
08 19.08 н/о н/о +13.4 +11.6 89 997.3 996.4
09 19.08 н/о н/о +15.0 +12.5 85 996.8 995.9
10 19.08 н/о н/о +15.0 +12.0 82 996.0 995.1
11 19.08 н/о н/о +17.1 +12.4 74 995.8 994.9
12 19.08 н/о н/о +18.5 +12.3 67 995.7 994.8
13 19.08 н/о н/о +18.9 +11.5 62 995.6 994.7
14 19.08 н/о н/о +19.3 +10.8 58 995.7 994.8
15 19.08 н/о н/о +18.2 +10.1 59 996.3 995.4
16 19.08 н/о н/о +18.7 +10.0 57 996.5 995.6
17 19.08 н/о н/о +17.6 +10.0 61 997.1 996.2
18 19.08 н/о н/о +16.4 +10.5 68 997.8 996.9 +12.1 +19.5
19 19.08 н/о н/о +14.5 +10.5 77 998.4 997.5
20 19.08 н/о н/о +11.7 +9.8 88 999.0 998.1
21 19.08 н/о н/о +10.5 +8.9 90 999.7 998.8
22 19.08 н/о н/о +9.9 +8.7 92 1000.2 999.3
23 19.08 н/о н/о +9.3 +8.2 93 1000.7 999.8
00 20.08 н/о н/о +9.1 +8.2 94 1001.2 1000.3
01 20.08 н/о н/о +8.6 +7.5 93 1001.7 1000.8
02 20.08 н/о н/о +7.9 +7.2 95 1002.2 1001.3
03 20.08 н/о н/о +8.4 +7.7 95 1002.7 1001.8
04 20.08 н/о н/о +8.4 +7.7 95 1003.3 1002.4
05 20.08 н/о н/о +9.9 +9.3 96 1003.8 1002.9
06 20.08 н/о н/о +11.2 +10.3 94 1004.1 1003.2 +7.7 +16.5
07 20.08 н/о н/о +12.1 +10.5 90 1004.6 1003.7
08 20.08 н/о н/о +14.2 +11.2 82 1004.9 1004.0
09 20.08 н/о н/о +15.6 +10.8 73 1005.2 1004.3
10 20.08 н/о н/о +15.0 +11.4 79 1005.5 1004.6
11 20.08 н/о н/о +16.6 +12.0 74 1006.1 1005.2
12 20.08 н/о н/о +15.1 +12.8 86 1006.6 1005.7 0.5
13 20.08 н/о н/о +16.5 +12.5 77 1006.8 1005.9 0.2
14 20.08 н/о н/о +16.4 +10.7 69 1007.1 1006.2
15 20.08 н/о н/о +14.9 +11.7 81 1007.7 1006.8 0.6
16 20.08 н/о н/о +14.9 +12.0 83 1008.5 1007.6 0.6
17 20.08 н/о н/о +13.9 +11.9 88 1008.8 1007.9
18 20.08 н/о н/о +13.7 +12.3 91 1008.8 1007.9 +11.0 +17.0
19 20.08 н/о н/о +12.9 +11.5 91 1009.2 1008.3
20 20.08 н/о н/о +12.7 +11.8 94 1009.2 1008.3
21 20.08 н/о н/о +11.6 +10.5 93 1009.2 1008.3
22 20.08 н/о н/о +11.4 +10.5 94 1009.4 1008.5
23 20.08 н/о н/о +11.2 +10.3 94 1009.6 1008.7
00 21.08 н/о н/о +10.7 +9.8 94 1009.8 1008.9
01 21.08 н/о н/о +9.7 +8.8 94 1010.1 1009.2
02 21.08 н/о н/о +8.9 +8.0 94 1010.3 1009.4
03 21.08 н/о н/о +9.3 +8.4 94 1010.5 1009.6
04 21.08 н/о н/о +9.6 +8.5 93 1010.7 1009.8
05 21.08 н/о н/о +10.6 +9.5 93 1010.9 1010.0
06 21.08 н/о н/о +12.4 +8.1 75 1011.0 1010.1 +8.6 +13.7 0.1
07 21.08 н/о н/о +15.0 +7.6 61 1011.4 1010.5
08 21.08 н/о н/о +16.1 +8.1 59 1011.7 1010.8
09 21.08 н/о н/о +16.5 +7.2 54 1011.9 1011.0
10 21.08 н/о н/о +16.4 +7.6 56 1012.2 1011.3
11 21.08 н/о н/о +16.5 +7.2 54 1012.6 1011.7
12 21.08 н/о н/о +16.4 +7.1 54 1013.1 1012.2
13 21.08 н/о н/о +17.4 +7.2 51 1013.3 1012.4
14 21.08 н/о н/о +14.5 +9.7 73 1014.1 1013.2
15 21.08 н/о н/о +13.8 +10.0 78 1015.0 1014.1
16 21.08 н/о н/о +12.7 +10.1 84 1015.3 1014.4
17 21.08 н/о н/о +12.6 +11.2 91 1015.8 1014.9 0.3
18 21.08 н/о н/о +12.1 +10.7 91 1016.3 1015.4 +12.1 +18.0
19 21.08 н/о н/о +11.9 +10.8 93 1016.4 1015.5 0.4
20 21.08 н/о н/о +11.4 +10.5 94 1016.8 1015.9 1
21 21.08 н/о н/о +11.2 +10.3 94 1016.9 1016.0
22 21.08 н/о н/о +11.2 +10.3 94 1017.3 1016.4 0.1
23 21.08 н/о н/о +11.1 +10.3 95 1017.5 1016.6
00 22.08 н/о н/о +10.9 +10.1 95 1017.8 1016.9
01 22.08 н/о н/о +10.2 +9.4 95 1017.8 1016.9
02 22.08 н/о н/о +9.7 +8.9 95 1017.9 1017.0
03 22.08 н/о н/о +9.8 +9.0 95 1017.9 1017.0
04 22.08 н/о н/о +9.7 +9.1 96 1017.8 1016.9
05 22.08 н/о н/о +10.6 +10.0 96 1018.0 1017.1
06 22.08 н/о н/о +11.4 +10.5 94 1017.9 1017.0 +9.7 +12.1 2
07 22.08 н/о н/о +12.0 +10.6 91 1018.0 1017.1
08 22.08 н/о н/о +12.5 +10.6 88 1018.0 1017.1
09 22.08 н/о н/о +13.6 +10.2 80 1017.9 1017.0
10 22.08 н/о н/о +13.9 +10.5 80 1017.8 1016.9
11 22.08 н/о н/о +16.3 +9.0 62 1017.2 1016.3
12 22.08 н/о н/о +14.4 +10.0 75 1017.0 1016.1
13 22.08 н/о н/о +14.0 +9.8 76 1017.2 1016.3
14 22.08 н/о н/о +15.1 +9.5 69 1017.0 1016.1
15 22.08 н/о н/о +14.9 +9.9 72 1016.5 1015.6
17 22.08 н/о н/о +14.5 +10.1 75 1015.5 1014.6
18 22.08 н/о н/о +13.8 +10.4 80 1015.3 1014.4 +11.3 +16.6
19 22.08 н/о н/о +10.4 +8.7 89 1015.3 1014.4

 

Местоположение метеостанции Сетса (Норвегия): широта 67.17 долгота 15.49 высота над уровнем моря 7 м.

В архиве по умолчанию представлена погода в Сетсе за последнюю неделю. Архивные данные за месяц целиком и за предыдущие месяцы, начиная с января 2011 года, Вы можете получить, выбрав интересующий диапазон дат из раскрывающегося списка и нажав кнопку "Ввод!".


*Определитесь, кто Вы:
робот инопланетянин человек

Внимание! Время в таблицах - всемирное. Для получения местного времени необходимо прибавить поправку, которая равна 1 ч.

Смотрите также архив погоды в соседних городах и на ближайших метеорологических станциях:

Погода в Салтдале (Норвегия) (27 км)
Погода в Бодо (Норвегия) (50 км)
Погода в Миеркенисе (Швеция) (61 км)
Погода в Хеллигвере (Норвегия) (73 км)
Погода в Хяртасене (Норвегия) (78 км)
Погода в Рейпе (Норвегия) (85 км)
Погода в Ропаруддене (Швеция) (87 км)
Погода в Сторфоршее (Норвегия) (95 км)
Погода в Драге (Норвегия) (101 км)
Погода в Аэропорту Mo i Rana (Норвегия) (104 км)

Пояснения к столбцам:

Ветер - указаны скорость ветра в м/с - средняя за 10 мин, порывы в срок и между сроками (в фигурных скобках) и направление, откуда дует ветер: С - северный, СВ - северо-восточный, В - восточный, ЮВ - юго-восточный, Ю - южный, ЮЗ - юго-западный, З - западный, СЗ - северо-западный.
Видимость - горизонтальная дальность видимости в метрах или километрах. При видимости от 1 до 10 км при отсутствии осадков обычно наблюдается дымка, при ухудшении видимости до 1 км и менее - туман. В сухую погоду видимость может ухудшаться дымом, пылью или мглою.
Явления - указаны атмосферные явления, наблюдавшиеся в срок или в последний час перед сроком; фигурными скобками обозначены явления, наблюдавшиеся между сроками (за 1-3 часа до срока); квадратными скобками обозначены град или гололедные отложения с указанием их диаметра в мм.
Облачность - указаны через наклонную черту общая и нижняя облачность в баллах и высота нижней границы облаков в метрах; квадратными скобками обозначены формы облаков: Ci - перистые, Cs - перисто-слоистые, Cc - перисто-кучевые, Ac - высококучевые, As - высокослоистые, Sc - слоисто-кучевые, Ns - слоисто-дождевые, Cu - кучевые, Cb - кучево-дождевые. Подробнее классификацию облаков см. в Атласе облаков (PDF).
T - Температура воздуха - температура, измеренная на высоте 2 м над землей.
Td - Температура точки росы - температура, при понижении до которой содержащийся в воздухе водяной пар достигнет насыщения.
f - Относительная влажность воздуха - влажноcть воздуха, измеренная на высоте 2 м над землей.
Te - Эффективная температура - температура, которую ощущает одетый по сезону человек в тени. Характеристика душности погоды. При расчете учитывается влияние влажности воздуха и скорости ветра на теплоощущения человека.
Tes - Эффективная температура на солнце - температура, которую ощущает человек, с поправкой на солнечный нагрев. Характеристика знойности погоды. Зависит от высоты солнца над горизонтом, облачности и скорости ветра. Ночью, в пасмурную погоду, а также при ветре 12 м/с и более поправка равна нулю.
P - Атмосферное давление - приведенное к уровню моря атмосферное давление.
Po - Атмосферное давление - измеренное на уровне метеостанции атмосферное давление.
Tmin - Минимальная температура - минимум температуры воздуха на высоте 2 м над землей.
Tmax - Максимальная температура - максимум температуры воздуха на высоте 2 м над землей.
R - Количество осадков - Количество выпавших осадков за период времени, мм. При наведении курсора мыши на число - период времени, за который выпало указанное количество осадков.
R24 - Количество осадков - Количество выпавших осадков за 24 часа, мм.
S - Снежный покров - Высота снежного покрова, см. При наведении курсора мыши на число - состояние снежного покрова и степень покрытия местности в баллах.